Regional Weather Roundup
Issued by NWS

Home | Current Version | Previous Version | Graphics & Text | Print | Product List | Glossary Off
Versions: 1 2 3 4 5 6 7 8 9 10 11 12 13 14 15 16 17 18 19 20 21 22 23 24 25 26 27 28 29 30 31 32 33 34 35 36 37 38 39 40 41 42 43 44 45 46 47 48 49 50

000
ASUS43 KMKX 201700
RWRWI

WISCONSIN REGIONAL WEATHER ROUNDUP
NATIONAL WEATHER SERVICE MILWAUKEE/SULLIVAN WI
1200 PM CDT SAT SEP 20 2014

NOTE: "FAIR" INDICATES FEW OR NO CLOUDS BELOW 12,000 FEET WITH NO
SIGNIFICANT WEATHER AND/OR OBSTRUCTIONS TO VISIBILITY.

WIZ001-002-006>008-014>016-023>028-201800-
NORTHWEST WISCONSIN

CITY           SKY/WX    TMP DP  RH WIND       PRES   REMARKS
SUPERIOR ARPT  CLOUDY    62  54  74 W10       29.75R
ASHLAND        PTSUNNY   68  57  68 W14       29.72R
HAYWARD        PTSUNNY   68  56  65 VRB6G16   29.74S
SIREN          PTSUNNY   67  56  66 W13       29.78R
RICE LAKE      MOSUNNY   69  56  64 W12       29.78R
LADYSMITH      MOSUNNY   70  58  66 W10       29.77R
EAU CLAIRE     NOT AVBL
MENOMONIE      MOSUNNY   70  58  64 W13       29.78F
NEW RICHMOND   SUNNY     71  56  59 W9G16     29.79S
OSCEOLA        MOSUNNY   70  58  65 W10       29.82R
$$

WIZ003>005-009-010-017-018-201800-
NORTH CENTRAL WISCONSIN

CITY           SKY/WX    TMP DP  RH WIND       PRES   REMARKS
WOODRUFF       CLOUDY    69  59  69 NW14      29.70R
RHINELANDER    MOSUNNY   71  57  61 W20G29    29.72R
EAGLE RIVER    PTSUNNY   69  55  61 NW17      29.68R
LAND O LAKES   CLOUDY    67  57  70 W9G21     29.69R
PHILLIPS       CLOUDY    68  59  72 W12G17    29.72S
TOMAHAWK       PTSUNNY   71  58  65 W14G20    29.72R
MEDFORD        PTSUNNY   67  60  79 W13       29.74R
MERRILL        CLOUDY    70  61  74 W13       29.71R
$$

WIZ029-030-035-036-043>047-201800-
CENTRAL WISCONSIN

CITY           SKY/WX    TMP DP  RH WIND       PRES   REMARKS
WAUSAU         PTSUNNY   72  61  68 W17G23    29.71R
MOSINEE        PTSUNNY   70  63  78 W15G21    29.74S
MARSHFIELD     PTSUNNY   71  63  75 W10G20    29.74F
STEVENS POINT  CLOUDY    66  61  82 W8        29.74R
WAUPACA        CLOUDY    72  65  78 W8G21     29.73S
WAUTOMA        PTSUNNY   72  64  78 W10       29.73F
WISC RAPIDS    PTSUNNY   70  63  78 W10       29.75S
CAMP DOUGLAS   NOT AVBL
$$

WIZ011>013-019>022-031-037>040-048>050-201800-
NORTHEAST WISCONSIN

CITY           SKY/WX    TMP DP  RH WIND       PRES   REMARKS
ANTIGO         PTSUNNY   71  61  68 W17G25    29.71S
STURGEON BAY   CLOUDY    68  63  83 SW14      29.69R
GREEN BAY      CLOUDY    71  64  78 W9        29.71R
MANITOWOC      NOT AVBL
APPLETON       CLOUDY    72  63  73 W15       29.74R
CLINTONVILLE   CLOUDY    72  63  73 NW15      29.70R
OSHKOSH        CLOUDY    73  64  73 W8G18     29.72S
$$

WIZ032>034-041-042-053>061-201800-
SOUTHWEST WISCONSIN

CITY           SKY/WX    TMP DP  RH WIND       PRES   REMARKS
LA CROSSE      CLOUDY    71  63  75 W9        29.78F
SPARTA         CLOUDY    68  62  81 SW6       29.79R
VIROQUA        PTSUNNY   66  66  99 W13G21    29.82R
BOSCOBEL       CLOUDY    72  64  76 SW8       29.82R
PRAIRIE DU CHI LGT RAIN  70  62  75 SW9       29.81R
PLATTEVILLE    PTSUNNY   74  65  72 SW15G22   29.85R
$$

WIZ056-057-062-063-064-067-068-201800-
SOUTH CENTRAL WISCONSIN

CITY           SKY/WX    TMP DP  RH WIND       PRES   REMARKS
BARABOO/DELLS  PTSUNNY   71  62  73 W9        29.77R
LONE ROCK      NOT AVBL
WATERTOWN      PTSUNNY   73  64  72 SW18      29.77F
MADISON        PTSUNNY   76  63  64 SW9G17    29.79R
MIDDLETON      FAIR      77  63  62 W21       29.78S
MONROE         PTSUNNY   72  63  73 SW20G26   29.83S
JANESVILLE     PTSUNNY   77  63  61 SW18G25   29.83S
$$

WIZ051-052-058>065-066-070>072-201800-
SOUTHEAST WISCONSIN

CITY           SKY/WX    TMP DP  RH WIND       PRES   REMARKS
MILWAUKEE      PTSUNNY   77  61  57 SW17G23   29.79F
WAUKESHA       MOSUNNY   73  61  64 SW16      29.80F
MILWAUKEE/TIMM SUNNY     73  59  60 SW17G24   29.78F
RACINE         MOSUNNY   76  62  62 SW14G23   29.81F
BURLINGTON     MOSUNNY   73  61  64 SW13G18   29.82S
KENOSHA        MOSUNNY   75  63  66 SW17G23   29.82S
FOND DU LAC    CLOUDY    71  63  75 SW8       29.75R
SHEBOYGAN      MOSUNNY   74  62  66 W21G26    29.74R
WEST BEND      PTSUNNY   73  59  60 SW16      29.76F
JUNEAU         PTSUNNY   72  63  71 SW20G25   29.78S
$$

LSZ147-162-201800-
LAKE SUPERIOR

STATION/POSITION TIME  TEMP    WIND        PRES    WAVE
                       AIR SEA DIR/SP/G            HT/PER
                 (UTC) (F)     (DEG/KT/KT) (MB)    (FT/S)
W MID LAKE BUOY  1550   54 47  270/ 16/ 17 1002.7R   2/ 3
DEVILS ISLAND    1600   58     270/ 14/ 16 1005.1R
PORT WING        1600   59     270/ 16/ 20 1006.8R
SAXON HARBOR     1600   68     280/  7/ 12 1005.8R
$$

LMZ867-665-643>646-201800-
LAKE MICHIGAN

STATION/POSITION TIME  TEMP    WIND        PRES    WAVE
                       AIR SEA DIR/SP/G            HT/PER
                 (UTC) (F)     (DEG/KT/KT) (MB)    (FT/S)
N MID LAKE BUOY  1550   60 58  200/ 19/ 23 1004.0S   6/ 7
NORTHPORT PIER   1600   67     220/  6/ 17 1004.1S
SISTER BAY       1627          260/ 14/ 16   N/A
KEWAUNEE LAKESHO 1600   72     230/ 10/ 18 1004.7F
SHEBOYGAN LAKESH 1600   65 53  210/ 12/ 14 1006.9F
PORT WASHINGTON  1600   74     230/  8/ 15 1008.8S
ATWATER BUOY     1600   67     220/ 14/ 17 1010.1
MILWAUKEE LAKESH 1600   71     230/ 14/ 17   N/A
S MID LAKE BUOY  1550   64 63  220/ 14/ 17 1010.1S   5/ 6
KENOSHA   LAKESH 1600   71     210/ 11/ 16 1009.5F
$$

TC  - TEMPERATURE IN CELSIUS
VSB - VISIBILITY IN STATUTE MILES
WCI - WIND CHILL INDEX
HX  - HEAT INDEX




USA.gov is the U.S. government's official web portal to all federal, state and local government web resources and services.